Погода в Белово

Россия / Алтайский край     52°56′47″N   82°15′38″E
темп.,
°C
ветер,
м/с
пор.,
м/с
влажн.,
%
обл.,
%
осадки,
мм/ч
давл.,
гПа
погр.,
м
17 мая, пн
пн1701:00+16з2476100 1.1 1013183
04:00+15з35857 0.2 1012112
07:00+14зсз379127 0.2 1013294
10:00+19с45655 0.0 1014816
13:00+22ссз445125 0.0 10151596
16:00+23ссз454290 0.0 10151800
19:00+23сз354011 0.0 10151921
22:00+18зсз22575 0.0 101513
18 мая, вт
вт1801:00+17ююз34615 0.0 101447
04:00+16ююз411658 0.0 1012210
07:00+17юз514675 0.1 1010387
10:00+23зюз8114661 0.1 1008739
13:00+27зсз7103525 0.1 10071864
16:00+27зсз7113327 0.0 10062642
19:00+25сз611400 0.0 10062188
22:00+17зсз357095 0.7 100782
19 мая, ср
ср1901:00+16з3572100 0.9 100677
04:00+15зюз3876100 0.0 1004139
07:00+14сз3689100 1.7 1005274
10:00+14с5790100 3.1 1005607
13:00+13с6777100 6.0 1007968
16:00+11ссв6873100 0.0 1010887
19:00+11ссв496792 0.0 10101140
22:00+9ссв4105254 0.0 1012319
20 мая, чт
чт2001:00+6ссв411485 0.0 1013383
04:00+4ссз3752100 0.0 1014163
07:00+5ссз375798 0.0 1014268
10:00+5ссз4680100 0.7 1016653
13:00+9с883894 1.4 10152408
16:00+9с8929100 0.0 10172978
19:00+9с79275 0.0 10202657
22:00+5с3439100 0.0 102363
21 мая, пт
пт2101:00+5зюз1138100 0.0 102310
04:00+4ююз3441100 0.0 102388
07:00+5ююз4943100 0.1 1023456
10:00+5юз81061100 0.1 1023973
13:00+2ю71394100 4.6 1022560
16:00+3ююв91691100 3.8 1019500
19:00+6ююв51183100 5.8 1016371
22:00+8ююв2696100 3.8 1014165